Regional Weather Roundup
Issued by NWS Jackson, KY

Home | Current Version | Previous Version | Text Only | Print | Product List | Glossary Off
Versions: 1 2 3 4 5 6 7 8 9 10 11 12 13 14 15 16 17 18 19 20 21 22 23 24 25 26 27 28 29 30 31 32 33 34 35 36 37 38 39 40 41 42 43 44 45 46 47 48 49 50

000
ASUS43 KJKL 302110
RWRJKL

EAST KENTUCKY HOURLY WEATHER ROUNDUP
NATIONAL WEATHER SERVICE JACKSON KY
500 PM EDT SUN AUG 30 2015

NOTE: "FAIR" INDICATES FEW OR NO CLOUDS BELOW 12,000 FEET WITH
NO SIGNIFICANT WEATHER AND/OR OBSTRUCTIONS TO VISIBILITY.

* THESE REPORTS ARE NOT UNDER NWS QUALITY CONTROL AND MAY NOT
  REPORT WEATHER SUCH AS PRECIPITATION AND FOG.

KYZ079-080-083-085-087-088-110-112-115-119-120-302200
...EASTERN KENTUCKY...

CITY           SKY/WX    TMP DP  RH WIND       PRES   REMARKS
JACKSON        PTSUNNY   81  62  52 CALM      30.13F
LONDON         PTSUNNY   81  61  50 SW5       30.12F
SOMERSET*        N/A     79  61  53 S5        30.12F
MONTICELLO*    CLOUDY    82  66  58 CALM      30.14F
WILLIAMSBURG*    N/A    N/A N/A N/A CALM        N/A
MIDDLESBORO*   CLOUDY    78  66  66 CALM      30.13F
HARLAN APT*      N/A     79  64  61 MISG      30.14F
HAZARD APT*    PTCLDY    79  66  65 S5        30.12F
BLACK MTN*       N/A     68  63  83 S5          N/A
PIKEVILLE APT* SUNNY     79  64  61 SE3       30.14F
BIG SANDY*     CLOUDY    81  65  58 SW5       30.13F
MOREHEAD APT*  MOCLDY    82  61  47 S8        30.11F
$$

KYZ035-036-041-042-044-050-067-078-099-302200
...CENTRAL KENTUCKY...

CITY           SKY/WX    TMP DP  RH WIND       PRES   REMARKS
MT STERLING*   MOSUNNY   82  64  54 SW6       30.10F
FLEMING/MASON* SUNNY    N/A N/A N/A SW8       30.09F
DANVILLE*      PTSUNNY   82  61  47 SW8       30.11S
RICHMOND*      PTSUNNY   82  59  44 SW7       30.10F
LEXINGTON      PTSUNNY   83  66  56 S10       30.08F
FRANKFORT      CLOUDY    83  66  56 SE3       30.06F
$$

KYZ091>093-OHZ055-061-077-WVZ005-015-034-035-042-302200
...SOUTHERN OHIO/WEST VIRGINIA...

CITY           SKY/WX    TMP DP  RH WIND       PRES   REMARKS
COVINGTON      PTSUNNY   83  63  50 S13       30.06F
COLUMBUS       PTSUNNY   85  65  51 SW9       30.04F
DAYTON         PTSUNNY   83  67  58 SW12      30.06F
WILMINGTON     MOSUNNY   84  67  56 S9        30.06F
HUNTINGTON     CLOUDY    83  66  56 S8        30.08F
CHARLESTON     CLOUDY    81  66  60 S8        30.10F
PINEVILLE*     CLOUDY    79  70  73 MISG      30.20F
BECKLEY        CLOUDY    74  61  63 SW3       30.19F
BLUEFIELD      CLOUDY    77  60  55 SE3       30.22F
$$

VAZ002-007-008-TNZ017-027-036-066-071-302200
...SOUTHWEST VIRGINIA/EAST TENNESSEE...

CITY           SKY/WX    TMP DP  RH WIND       PRES   REMARKS
WISE*          PTSUNNY   75  61  60 N5        30.21F
JONESVILLE*    MOCLDY    79  52  38 CALM      30.15F
ABINGDON*      MOSUNNY   81  58  44 S5        30.17S
BRISTOL        PTSUNNY   81  62  52 E5        30.14S
KNOXVILLE      LGT RAIN  71  67  87 SE3       30.10R
OAK RIDGE      CLOUDY    81  67  62 CALM      30.11F
CROSSVILLE     CLOUDY    77  61  57 CALM      30.15F
NASHVILLE      PTSUNNY   79  62  56 S7        30.09F
$$

...KEY TO REMARKS...
VSB - VISIBILITY IN MILES
WCI - WIND CHILL INDEX
HX  - HEAT INDEX

$$


USA.gov is the U.S. government's official web portal to all federal, state and local government web resources and services.